User: anonymous   Login
Location: Arborea
(39.7744°N, 8.5819°E)
Time: 09:08:40
(UTC+00:00)
Language:

Cosmos 2278 Rocket - Orbit

View from above orbital plane
View from above orbital plane
View from above satellite
View from above satellite

Ground track
Ground track

The orbit data is extracted from the following two-line orbital elements,

1 23088U 94023B   22024.92442404  .00000200  00000-0  12866-3 0  9996
2 23088  71.0017 350.1404 0001621  24.6970 335.4229 14.14702875433258
Epoch (UTC): 24 January 2022 22:11:10
Eccentricity: 0.0001621
inclination: 71.0017°
perigee height: 842 km
apogee height: 844 km
right ascension of ascending node: 350.1404°
argument of perigee: 24.6970°
revolutions per day: 14.14702875
mean anomaly at epoch: 335.4229°
orbit number at epoch: 43325

The dashed part of the orbit path shows where the satellite is in the earth's shadow,  

DLR